Location: Philomena
(55.1756°N, 111.6233°W)
Time: 08:31:50
(UTC+00:00)

PCSat - Pass Details

Date: 06 December 2023
Orbit: 784 x 791 km, 67.0° (Epoch: 23 February)

Event Time Altitude Azimuth Distance (km) Brightness Sun altitude
Exits shadow 10:17:20 13° 82° (E) 2,162 12.3 -43.4°
Drops below altitude 10° 10:18:25 10° 72° (ENE) 2,357 12.6 -43.3°
Sets 10:21:50 0° 50° (NE) 3,294 13.5 -42.8°
